Home > Weather > Gothenburg > Past weeks

Flag for Sweden Weather for the Past 2 Weeks in Gothenburg, Sweden

Now
41 °F

Fog.


Feels Like: 33 °F
Forecast: 41 / 44 °F
Wind: 15 mph from South

Location: Gothenburg / Save

Current Time: Feb 6, 2016 at 4:50:47 AM

Latest Report: Feb 6, 2016 at 3:50 AM


Visibility: 3 mi

Pressure: 29.74 "Hg

Humidity: 93%

Dew point: 39 °F

Location of GothenburgLocation

Historic Weather in Gothenburg — Graph

°F

Gothenburg Temperature Yesterday

Maximum temperature yesterday: 39 °F (at 10:20 PM)
Minimum temperature yesterday: 23 °F (at 12:20 AM)
Average temperature yesterday: 32 °F

High & Low Weather Summary for the Past Weeks

 TemperatureHumidityPressure
High46 °F (Jan 29, 4:50 PM)100% (Jan 22, 2:50 AM)30.36 "Hg (Jan 22, 2:50 AM)
Low23 °F (Feb 4, 10:50 PM)56% (Feb 4, 11:20 AM)28.94 "Hg (Feb 2, 8:20 PM)
Average37 °F87%29.66 "Hg
* Reported Jan 22 2:20 AM — Feb 6 2:50 AM, Gothenburg, Weather by CustomWeather, © 2016

Note: Actual official high and low records may vary slightly from our data, if they occured in-between our weather recording intervals... More about our weather records

Advertising

Gothenburg Weather History for the Previous 24 Hours

 ConditionsComfort  
Time TempWeatherWind HumidityBarometerVisibility
2:50 AM
Sat, Feb 6
39 °FLow clouds.15 mph100%29.77 "Hg2 mi
2:20 AM39 °FLow clouds.15 mph100%29.77 "Hg1 mi
1:20 AM39 °FFog.14 mph100%29.80 "Hg0 mi
12:50 AM39 °FFog.14 mph93%29.80 "Hg0 mi
12:20 AM39 °FFog.15 mph93%29.80 "Hg1 mi
11:20 PM
Fri, Feb 5
39 °FLight rain. Mostly cloudy.14 mph93%29.83 "Hg4 mi
10:50 PM39 °FLight rain. Mostly cloudy.15 mph93%29.83 "Hg2 mi
10:20 PM39 °FDrizzle. Low clouds.16 mph93%29.83 "Hg3 mi
9:50 PM37 °FLight rain. Low clouds.15 mph100%29.83 "Hg4 mi
9:20 PM37 °FDrizzle. Low clouds.17 mph100%29.83 "Hg3 mi
8:50 PM37 °FLight rain. Low clouds.16 mph100%29.86 "Hg4 mi
8:20 PM37 °FDrizzle. Low clouds.15 mph100%29.86 "Hg2 mi
7:50 PM37 °FDrizzle. Low clouds.14 mph93%29.86 "Hg2 mi
7:20 PM37 °FLight rain. Low clouds.12 mph93%29.89 "Hg1 mi
6:50 PM37 °FFog.8 mph93%29.89 "Hg1 mi
6:20 PM37 °FFog.8 mph93%29.89 "Hg3 mi
5:50 PM37 °FPartly cloudy.8 mph87%29.89 "Hg5 mi
5:20 PM36 °FDrizzle. Mostly cloudy.7 mph93%29.89 "HgN/A
4:50 PM37 °FDrizzle. Mostly cloudy.6 mph87%29.92 "HgN/A
4:20 PM37 °FDrizzle. Mostly cloudy.7 mph87%29.92 "HgN/A
3:50 PM37 °FMore clouds than sun.8 mph87%29.92 "HgN/A
3:20 PM37 °FBroken clouds.8 mph81%29.95 "HgN/A
2:50 PM37 °FPartly sunny.9 mph81%29.95 "HgN/A
2:20 PM37 °FPartly sunny.8 mph81%29.95 "HgN/A
1:50 PM37 °FBroken clouds.9 mph81%29.95 "HgN/A
1:20 PM37 °FSunny.7 mph75%29.98 "Hg10 mi
12:50 PM37 °FSunny.5 mph75%29.98 "Hg10 mi
12:20 PM37 °FSunny.5 mph75%29.98 "Hg10 mi
11:50 AM36 °FSunny.2 mph87%29.98 "Hg10 mi
11:20 AM34 °FSunny.2 mph87%29.98 "Hg10 mi
10:50 AM34 °FSunny.2 mph87%29.98 "Hg10 mi
10:20 AM32 °FSunny.3 mph93%29.98 "Hg10 mi
9:50 AM28 °FSunny.2 mph93%29.98 "Hg10 mi
9:20 AM27 °FSunny.2 mph93%29.95 "Hg10 mi
8:50 AM25 °FSunny.3 mph93%29.95 "Hg10 mi
8:20 AM23 °FSunny.No wind93%29.95 "Hg10 mi
7:50 AM23 °FClear.2 mph93%29.95 "Hg10 mi
7:20 AM23 °FClear.2 mph93%29.95 "Hg10 mi
6:50 AM23 °FClear.2 mph93%29.92 "Hg10 mi
6:20 AM25 °FPartly cloudy.2 mph93%29.92 "HgN/A
5:50 AM25 °FPassing clouds.2 mph93%29.95 "HgN/A
5:20 AM25 °FPassing clouds.No wind93%29.95 "HgN/A
4:50 AM25 °FOvercast.2 mph93%29.95 "HgN/A
4:20 AM25 °FPassing clouds.1 mph93%29.95 "HgN/A
Weather by CustomWeather, © 2016

See weather overviewHow to use our weather pages